Glasgow, United Kingdom

4:41 AM BST on June 28, 2017 (GMT +0100)
Glasgow

Weather History for EGPF - June, 2014

Change the Weather History Date:

Monday, June 2, 2014

  Actual Average Record
Temperature  
Mean Temperature 56 °F -  
Max Temperature 62 °F 61 °F 69 °F (2016)
Min Temperature 51 °F 47 °F 39 °F (1997)
Degree Days  
Heating Degree Days 8    
Growing Degree Days 6 (Base 50)    
Moisture  
Dew Point 53 °F    
Average Humidity 88    
Maximum Humidity 94    
Minimum Humidity 77    
Precipitation  
Precipitation 0.00 in - - ()
Sea Level Pressure  
Sea Level Pressure 29.96 in    
Wind  
Wind Speed 7 mph ()    
Max Wind Speed 16 mph    
Max Gust Speed -    
Visibility 5.9 miles    
Events Rain    
Averages and records for this station are not official NWS values.
T = Trace of Precipitation, MM = Missing Value Source: Averaged Metar Reports

Daily Weather History Graph

Daily Weather History Graph

Search for Another Location

Airport or City:

Trip Planner

Search our weather history database for the weather conditions in past years. The results will help you decide how hot, cold, wet, or windy it might be!

Date:

Astronomy

Jun. 02, 2014 Rise Set
Actual Time 4:39 AM BST 9:52 PM BST
Civil Twilight 3:42 AM BST 10:50 PM BST
Nautical Twilight 1:48 AM BST 12:43 AM BST
Astronomical Twilight Sun does not set Sun does not set
Moon 9:24 AM BST (6/2) 12:10 AM BST (6/2)
Length of Visible Light 19h 07m
Length of Day
17h 12m
Waxing Crescent, 20% of the Moon is Illuminated
Jun 2
Waxing Crescent
Jun 5
First Quarter
Jun 13
Full
Jun 19
Last Quarter
Jun 27
New

Hourly Weather History & Observations

Time (BST) Temp. Dew Point Humidity Pressure Visibility Wind Dir Wind Speed Gust Speed Precip Events Conditions
12:20 AM 57.2 °F 53.6 °F 88% 30.01 in 6.2 mi East 5.8 mph - N/A   Mostly Cloudy
12:50 AM 55.4 °F 53.6 °F 94% 30.01 in 6.2 mi East 5.8 mph - N/A   Scattered Clouds
1:20 AM 55.4 °F 53.6 °F 94% 30.01 in 6.2 mi East 6.9 mph - N/A Rain Light Rain
1:50 AM 55.4 °F 53.6 °F 94% 30.01 in 6.2 mi East 6.9 mph - N/A   Mostly Cloudy
2:20 AM 55.4 °F 53.6 °F 94% 30.01 in 6.2 mi ESE 3.5 mph - N/A   Mostly Cloudy
2:50 AM 55.4 °F 53.6 °F 94% 29.98 in 6.2 mi SE 6.9 mph - N/A   Mostly Cloudy
3:20 AM 55.4 °F 53.6 °F 94% 29.98 in 6.2 mi SSE 6.9 mph - N/A   Mostly Cloudy
3:50 AM 55.4 °F 53.6 °F 94% 29.98 in 6.2 mi SSE 9.2 mph - N/A   Overcast
4:20 AM 55.4 °F 53.6 °F 94% 29.98 in 5.6 mi SSE 9.2 mph - N/A   Mostly Cloudy
4:50 AM 55.4 °F 53.6 °F 94% 29.98 in 3.7 mi South 6.9 mph - N/A   Overcast
5:20 AM 55.4 °F 53.6 °F 94% 29.98 in 3.1 mi SSE 8.1 mph - N/A   Haze
5:50 AM 55.4 °F 53.6 °F 94% 29.98 in 3.1 mi South 5.8 mph - N/A Rain Light Rain
6:20 AM 55.4 °F 53.6 °F 94% 29.95 in 3.7 mi South 8.1 mph - N/A   Mostly Cloudy
6:50 AM 55.4 °F 53.6 °F 94% 29.95 in 3.1 mi South 8.1 mph - N/A Rain Light Rain
7:20 AM 55.4 °F 53.6 °F 94% 29.95 in 6.2 mi South 6.9 mph - N/A Rain Light Rain
7:50 AM 57.2 °F 55.4 °F 94% 29.95 in 6.2 mi South 9.2 mph - N/A   Mostly Cloudy
8:20 AM 55.4 °F 53.6 °F 94% 29.98 in 5.6 mi SSW 8.1 mph - N/A Rain Light Rain
8:50 AM 57.2 °F 55.4 °F 94% 29.98 in 6.2 mi SSW 6.9 mph - N/A   Mostly Cloudy
9:20 AM 57.2 °F 55.4 °F 94% 29.98 in 6.2 mi SSW 6.9 mph - N/A   Mostly Cloudy
9:50 AM 57.2 °F 55.4 °F 94% 29.98 in 6.2 mi SSW 6.9 mph - N/A Rain Light Rain
10:20 AM 57.2 °F 55.4 °F 94% 29.98 in 5.6 mi SSW 6.9 mph - N/A Rain Light Rain
10:50 AM 59.0 °F 55.4 °F 88% 29.95 in 6.2 mi SSW 9.2 mph - N/A   Mostly Cloudy
11:20 AM 59.0 °F 55.4 °F 88% 29.95 in 6.2 mi SSW 12.7 mph - N/A   Mostly Cloudy
11:50 AM 59.0 °F 55.4 °F 88% 29.95 in 6.2 mi SW 13.8 mph - N/A   Mostly Cloudy
12:20 PM 60.8 °F 55.4 °F 82% 29.95 in 6.2 mi SW 16.1 mph - N/A   Mostly Cloudy
12:50 PM 60.8 °F 55.4 °F 82% 29.95 in 6.2 mi SW 16.1 mph - N/A   Mostly Cloudy
1:20 PM 62.6 °F 55.4 °F 77% 29.95 in 6.2 mi SW 13.8 mph - N/A   Mostly Cloudy
1:50 PM 60.8 °F 55.4 °F 82% 29.95 in 6.2 mi SW 13.8 mph - N/A   Mostly Cloudy
2:20 PM 60.8 °F 53.6 °F 77% 29.95 in 6.2 mi SW 11.5 mph - N/A   Mostly Cloudy
2:50 PM 60.8 °F 53.6 °F 77% 29.95 in 6.2 mi SW 13.8 mph - N/A   Mostly Cloudy
3:20 PM 60.8 °F 53.6 °F 77% 29.95 in 6.2 mi SW 12.7 mph - N/A   Mostly Cloudy
3:50 PM 60.8 °F 53.6 °F 77% 29.95 in 6.2 mi SW 12.7 mph - N/A   Mostly Cloudy
4:20 PM 60.8 °F 53.6 °F 77% 29.95 in 6.2 mi WSW 12.7 mph - N/A   Mostly Cloudy
4:50 PM 59.0 °F 53.6 °F 82% 29.95 in 6.2 mi WSW 11.5 mph - N/A   Scattered Clouds
5:20 PM 59.0 °F 53.6 °F 82% 29.95 in 6.2 mi WSW 11.5 mph - N/A   Mostly Cloudy
5:50 PM 59.0 °F 53.6 °F 82% 29.95 in 6.2 mi WSW 11.5 mph - N/A   Mostly Cloudy
6:20 PM 55.4 °F 51.8 °F 88% 29.95 in 6.2 mi WSW 11.5 mph - N/A   Mostly Cloudy
7:20 PM 57.2 °F 51.8 °F 82% 29.95 in 6.2 mi West 6.9 mph - N/A   Mostly Cloudy
7:50 PM 55.4 °F 51.8 °F 88% 29.95 in 6.2 mi West 6.9 mph - N/A   Mostly Cloudy
8:20 PM 55.4 °F 51.8 °F 88% 29.92 in 6.2 mi West 5.8 mph - N/A   Mostly Cloudy
8:50 PM 55.4 °F 51.8 °F 88% 29.92 in 6.2 mi WSW 6.9 mph - N/A   Mostly Cloudy
9:20 PM 55.4 °F 50.0 °F 82% 29.92 in 6.2 mi WSW 6.9 mph - N/A   Scattered Clouds
9:50 PM 53.6 °F 50.0 °F 88% 29.92 in 6.2 mi West 4.6 mph - N/A   Mostly Cloudy
10:20 PM 53.6 °F 50.0 °F 88% 29.92 in 6.2 mi West 5.8 mph - N/A   Partly Cloudy
10:50 PM 53.6 °F 50.0 °F 88% 29.92 in 6.2 mi WNW 4.6 mph - N/A   Mostly Cloudy
11:20 PM 51.8 °F 50.0 °F 94% 29.92 in 6.2 mi West 5.8 mph - N/A   Mostly Cloudy
11:50 PM 51.8 °F 50.0 °F 94% 29.92 in 6.2 mi West 4.6 mph - N/A   Scattered Clouds